owner,sensor,date,latitude,longitude,relative_humidity,qcFlag 
COAPS,ioos:station:COAPS:N7:1,2008-09-29T16:44:00Z,29.6619,-84.3731,18.73,1111122 
COAPS,ioos:station:COAPS:N7:1,2008-09-29T16:45:00Z,29.6619,-84.3731,18.69,1111122 
COAPS,ioos:station:COAPS:N7:1,2008-09-29T16:46:00Z,29.6619,-84.3731,20.53,1111122 
COAPS,ioos:station:COAPS:N7:1,2008-09-29T16:47:00Z,29.6619,-84.3731,20.63,1111122 
COAPS,ioos:station:COAPS:N7:1,2008-09-29T16:48:00Z,29.6619,-84.3731,21.86,1111122 
COAPS,ioos:station:COAPS:N7:1,2008-09-29T16:49:00Z,29.6619,-84.3731,22.42,1111122 
COAPS,ioos:station:COAPS:N7:1,2008-09-29T16:50:00Z,29.6619,-84.3731,21.19,1111122 
COAPS,ioos:station:COAPS:N7:1,2008-09-29T16:51:00Z,29.6619,-84.3731,22.45,1111122 
COAPS,ioos:station:COAPS:N7:1,2008-09-29T16:52:00Z,29.6619,-84.3731,21.89,1111122 
COAPS,ioos:station:COAPS:N7:1,2008-09-29T16:53:00Z,29.6619,-84.3731,21.19,1111122 
COAPS,ioos:station:COAPS:N7:1,2008-09-29T16:54:00Z,29.6619,-84.3731,24.3,1111122 
COAPS,ioos:station:COAPS:N7:1,2008-09-29T16:55:00Z,29.6619,-84.3731,23.06,1111122 
COAPS,ioos:station:COAPS:N7:1,2008-09-29T16:56:00Z,29.6619,-84.3731,24.24,1111122 
COAPS,ioos:station:COAPS:N7:1,2008-09-29T16:57:00Z,29.6619,-84.3731,24.02,1111122 
COAPS,ioos:station:COAPS:N7:1,2008-09-29T16:58:00Z,29.6619,-84.3731,24.78,1111122 
COAPS,ioos:station:COAPS:N7:1,2008-09-29T16:59:00Z,29.6619,-84.3731,25.16,1111122 
COAPS,ioos:station:COAPS:N7:1,2008-09-29T17:00:00Z,29.6619,-84.3731,24.25,1111122 
COAPS,ioos:station:COAPS:N7:1,2008-09-29T17:01:00Z,29.6619,-84.3731,23.82,1111122 
COAPS,ioos:station:COAPS:N7:1,2008-09-29T17:02:00Z,29.6619,-84.3731,24.38,1111122 
COAPS,ioos:station:COAPS:N7:1,2008-09-29T17:03:00Z,29.6619,-84.3731,24.55,1111122 
COAPS,ioos:station:COAPS:N7:1,2008-09-29T17:04:00Z,29.6619,-84.3731,24.69,1111122 
COAPS,ioos:station:COAPS:N7:1,2008-09-29T17:05:00Z,29.6619,-84.3731,25.46,1111122 
COAPS,ioos:station:COAPS:N7:1,2008-09-29T17:06:00Z,29.6619,-84.3731,27.44,1111122 
COAPS,ioos:station:COAPS:N7:1,2008-09-29T17:07:00Z,29.6619,-84.3731,28.24,1111122 
COAPS,ioos:station:COAPS:N7:1,2008-09-29T17:08:00Z,29.6619,-84.3731,26.7,1111122 
COAPS,ioos:station:COAPS:N7:1,2008-09-29T17:09:00Z,29.6619,-84.3731,28.3,1111122 
COAPS,ioos:station:COAPS:N7:1,2008-09-29T17:10:00Z,29.6619,-84.3731,27.94,1111122 
COAPS,ioos:station:COAPS:N7:1,2008-09-29T17:11:00Z,29.6619,-84.3731,31.09,1111122 
COAPS,ioos:station:COAPS:N7:1,2008-09-29T17:12:00Z,29.6619,-84.3731,27.37,1111122 
COAPS,ioos:station:COAPS:N7:1,2008-09-29T17:13:00Z,29.6619,-84.3731,26.91,1111122 
COAPS,ioos:station:COAPS:N7:1,2008-09-29T17:14:00Z,29.6619,-84.3731,27.44,1111122 
COAPS,ioos:station:COAPS:N7:1,2008-09-29T17:15:00Z,29.6619,-84.3731,26.36,1111122 
COAPS,ioos:station:COAPS:N7:1,2008-09-29T17:16:00Z,29.6619,-84.3731,26.54,1111122 
COAPS,ioos:station:COAPS:N7:1,2008-09-29T17:17:00Z,29.6619,-84.3731,26.04,1111122 
COAPS,ioos:station:COAPS:N7:1,2008-09-29T17:18:00Z,29.6619,-84.3731,26.98,1111122 
COAPS,ioos:station:COAPS:N7:1,2008-09-29T17:19:00Z,29.6619,-84.3731,27.32,1111122 
COAPS,ioos:station:COAPS:N7:1,2008-09-29T17:20:00Z,29.6619,-84.3731,29.44,1111122 
COAPS,ioos:station:COAPS:N7:1,2008-09-29T17:21:00Z,29.6619,-84.3731,25.95,1111122 
COAPS,ioos:station:COAPS:N7:1,2008-09-29T17:22:00Z,29.6619,-84.3731,26.48,1111122 
COAPS,ioos:station:COAPS:N7:1,2008-09-29T17:23:00Z,29.6619,-84.3731,30.87,1111122 
COAPS,ioos:station:COAPS:N7:1,2008-09-29T17:24:00Z,29.6619,-84.3731,32.22,1111122 
COAPS,ioos:station:COAPS:N7:1,2008-09-29T17:25:00Z,29.6619,-84.3731,29.09,1111122 
COAPS,ioos:station:COAPS:N7:1,2008-09-29T17:26:00Z,29.6619,-84.3731,26.9,1111122 
COAPS,ioos:station:COAPS:N7:1,2008-09-29T17:27:00Z,29.6619,-84.3731,27.78,1111122 
COAPS,ioos:station:COAPS:N7:1,2008-09-29T17:28:00Z,29.6619,-84.3731,25.66,1111122 
COAPS,ioos:station:COAPS:N7:1,2008-09-29T17:29:00Z,29.6619,-84.3731,24.47,1111122 
COAPS,ioos:station:COAPS:N7:1,2008-09-29T17:30:00Z,29.6619,-84.3731,24.88,1111122 
COAPS,ioos:station:COAPS:N7:1,2008-09-29T17:31:00Z,29.6619,-84.3731,25.04,1111122 
COAPS,ioos:station:COAPS:N7:1,2008-09-29T17:32:00Z,29.6619,-84.3731,25.06,1111122 
COAPS,ioos:station:COAPS:N7:1,2008-09-29T17:33:00Z,29.6619,-84.3731,24.87,1111122 
COAPS,ioos:station:COAPS:N7:1,2008-09-29T17:34:00Z,29.6619,-84.3731,24.16,1111122 
COAPS,ioos:station:COAPS:N7:1,2008-09-29T17:35:00Z,29.6619,-84.3731,25.68,1111122 
COAPS,ioos:station:COAPS:N7:1,2008-09-29T17:36:00Z,29.6619,-84.3731,24.71,1111122 
COAPS,ioos:station:COAPS:N7:1,2008-09-29T17:37:00Z,29.6619,-84.3731,25.43,1111122 
COAPS,ioos:station:COAPS:N7:1,2008-09-29T17:38:00Z,29.6619,-84.3731,25.59,1111122 
COAPS,ioos:station:COAPS:N7:1,2008-09-29T17:39:00Z,29.6619,-84.3731,27.46,1111122 
COAPS,ioos:station:COAPS:N7:1,2008-09-29T17:40:00Z,29.6619,-84.3731,26.79,1111122 
COAPS,ioos:station:COAPS:N7:1,2008-09-29T17:41:00Z,29.6619,-84.3731,28.69,1111122 
COAPS,ioos:station:COAPS:N7:1,2008-09-29T17:42:00Z,29.6619,-84.3731,29.28,1111122 
COAPS,ioos:station:COAPS:N7:1,2008-09-29T17:43:00Z,29.6619,-84.3731,27.5,1111122 
COAPS,ioos:station:COAPS:N7:1,2008-09-29T17:44:00Z,29.6619,-84.3731,28.51,1111122 
COAPS,ioos:station:COAPS:N7:1,2008-09-29T17:45:00Z,29.6619,-84.3731,29.07,1111122 
COAPS,ioos:station:COAPS:N7:1,2008-09-29T17:46:00Z,29.6619,-84.3731,29.26,1111122 
COAPS,ioos:station:COAPS:N7:1,2008-09-29T17:47:00Z,29.6619,-84.3731,27.65,1111122 
COAPS,ioos:station:COAPS:N7:1,2008-09-29T17:48:00Z,29.6619,-84.3731,27.24,1111122 
COAPS,ioos:station:COAPS:N7:1,2008-09-29T17:49:00Z,29.6619,-84.3731,29.86,1111122 
COAPS,ioos:station:COAPS:N7:1,2008-09-29T17:50:00Z,29.6619,-84.3731,27.14,1111122 
COAPS,ioos:station:COAPS:N7:1,2008-09-29T17:51:00Z,29.6619,-84.3731,27.06,1111122 
COAPS,ioos:station:COAPS:N7:1,2008-09-29T17:52:00Z,29.6619,-84.3731,28.94,1111122 
COAPS,ioos:station:COAPS:N7:1,2008-09-29T17:53:00Z,29.6619,-84.3731,36.28,1111122 
COAPS,ioos:station:COAPS:N7:1,2008-09-29T17:54:00Z,29.6619,-84.3731,39.13,1111122 
COAPS,ioos:station:COAPS:N7:1,2008-09-29T17:55:00Z,29.6619,-84.3731,38.12,1111122 
COAPS,ioos:station:COAPS:N7:1,2008-09-29T17:56:00Z,29.6619,-84.3731,38.42,1111122 
COAPS,ioos:station:COAPS:N7:1,2008-09-29T17:57:00Z,29.6619,-84.3731,39.04,1111122 
COAPS,ioos:station:COAPS:N7:1,2008-09-29T17:58:00Z,29.6619,-84.3731,36.88,1111122 
COAPS,ioos:station:COAPS:N7:1,2008-09-29T17:59:00Z,29.6619,-84.3731,38.17,1111122 
COAPS,ioos:station:COAPS:N7:1,2008-09-29T18:00:00Z,29.6619,-84.3731,37.67,1111122 
COAPS,ioos:station:COAPS:N7:1,2008-09-29T18:01:00Z,29.6619,-84.3731,36.45,1111122 
COAPS,ioos:station:COAPS:N7:1,2008-09-29T18:02:00Z,29.6619,-84.3731,36.32,1111122 
COAPS,ioos:station:COAPS:N7:1,2008-09-29T18:03:00Z,29.6619,-84.3731,36.65,1111122 
COAPS,ioos:station:COAPS:N7:1,2008-09-29T18:04:00Z,29.6619,-84.3731,38.04,1111122 
COAPS,ioos:station:COAPS:N7:1,2008-09-29T18:05:00Z,29.6619,-84.3731,39.13,1111122 
COAPS,ioos:station:COAPS:N7:1,2008-09-29T18:06:00Z,29.6619,-84.3731,40.57,1111122 
COAPS,ioos:station:COAPS:N7:1,2008-09-29T18:07:00Z,29.6619,-84.3731,38.79,1111122 
COAPS,ioos:station:COAPS:N7:1,2008-09-29T18:08:00Z,29.6619,-84.3731,39.38,1111122 
COAPS,ioos:station:COAPS:N7:1,2008-09-29T18:09:00Z,29.6619,-84.3731,44.01,1111122 
COAPS,ioos:station:COAPS:N7:1,2008-09-29T18:10:00Z,29.6619,-84.3731,40.33,1111122 
COAPS,ioos:station:COAPS:N7:1,2008-09-29T18:11:00Z,29.6619,-84.3731,42.41,1111122 
COAPS,ioos:station:COAPS:N7:1,2008-09-29T18:12:00Z,29.6619,-84.3731,41.62,1111122 
COAPS,ioos:station:COAPS:N7:1,2008-09-29T18:13:00Z,29.6619,-84.3731,40.87,1111122 
COAPS,ioos:station:COAPS:N7:1,2008-09-29T18:14:00Z,29.6619,-84.3731,42.91,1111122 
COAPS,ioos:station:COAPS:N7:1,2008-09-29T18:15:00Z,29.6619,-84.3731,47.4,1111122 
COAPS,ioos:station:COAPS:N7:1,2008-09-29T18:16:00Z,29.6619,-84.3731,45.06,1111122 
COAPS,ioos:station:COAPS:N7:1,2008-09-29T18:17:00Z,29.6619,-84.3731,45.49,1111122 
COAPS,ioos:station:COAPS:N7:1,2008-09-29T18:18:00Z,29.6619,-84.3731,47.04,1111122 
COAPS,ioos:station:COAPS:N7:1,2008-09-29T18:19:00Z,29.6619,-84.3731,46.61,1111122 
COAPS,ioos:station:COAPS:N7:1,2008-09-29T18:20:00Z,29.6619,-84.3731,47.4,1111122 
COAPS,ioos:station:COAPS:N7:1,2008-09-29T18:21:00Z,29.6619,-84.3731,47.65,1111122 
COAPS,ioos:station:COAPS:N7:1,2008-09-29T18:22:00Z,29.6619,-84.3731,47.59,1111122 
COAPS,ioos:station:COAPS:N7:1,2008-09-29T18:23:00Z,29.6619,-84.3731,47.88,1111122 
COAPS,ioos:station:COAPS:N7:1,2008-09-29T18:24:00Z,29.6619,-84.3731,47.52,1111122 
COAPS,ioos:station:COAPS:N7:1,2008-09-29T18:25:00Z,29.6619,-84.3731,47.44,1111122 
COAPS,ioos:station:COAPS:N7:1,2008-09-29T18:26:00Z,29.6619,-84.3731,50.96,1111122 
COAPS,ioos:station:COAPS:N7:1,2008-09-29T18:27:00Z,29.6619,-84.3731,52.83,1111122 
COAPS,ioos:station:COAPS:N7:1,2008-09-29T18:28:00Z,29.6619,-84.3731,51.45,1111122 
COAPS,ioos:station:COAPS:N7:1,2008-09-29T18:29:00Z,29.6619,-84.3731,52.29,1111122 
COAPS,ioos:station:COAPS:N7:1,2008-09-29T18:30:00Z,29.6619,-84.3731,51.33,1111122 
COAPS,ioos:station:COAPS:N7:1,2008-09-29T18:31:00Z,29.6619,-84.3731,52.17,1111122 
COAPS,ioos:station:COAPS:N7:1,2008-09-29T18:32:00Z,29.6619,-84.3731,51.66,1111122 
COAPS,ioos:station:COAPS:N7:1,2008-09-29T18:33:00Z,29.6619,-84.3731,52.69,1111122 
COAPS,ioos:station:COAPS:N7:1,2008-09-29T18:34:00Z,29.6619,-84.3731,51.72,1111122 
COAPS,ioos:station:COAPS:N7:1,2008-09-29T18:35:00Z,29.6619,-84.3731,50.72,1111122 
COAPS,ioos:station:COAPS:N7:1,2008-09-29T18:36:00Z,29.6619,-84.3731,48.45,1111122 
COAPS,ioos:station:COAPS:N7:1,2008-09-29T18:37:00Z,29.6619,-84.3731,51.05,1111122 
COAPS,ioos:station:COAPS:N7:1,2008-09-29T18:38:00Z,29.6619,-84.3731,51.7,1111122 
COAPS,ioos:station:COAPS:N7:1,2008-09-29T18:39:00Z,29.6619,-84.3731,51.47,1111122 
COAPS,ioos:station:COAPS:N7:1,2008-09-29T18:40:00Z,29.6619,-84.3731,49.96,1111122 
COAPS,ioos:station:COAPS:N7:1,2008-09-29T18:41:00Z,29.6619,-84.3731,49.9,1111122 
COAPS,ioos:station:COAPS:N7:1,2008-09-29T18:42:00Z,29.6619,-84.3731,51.19,1111122 
COAPS,ioos:station:COAPS:N7:1,2008-09-29T18:43:00Z,29.6619,-84.3731,51.13,1111122 
COAPS,ioos:station:COAPS:N7:1,2008-09-29T18:44:00Z,29.6619,-84.3731,51.07,1111122 
COAPS,ioos:station:COAPS:N7:1,2008-09-29T18:45:00Z,29.6619,-84.3731,50.75,1111122 
COAPS,ioos:station:COAPS:N7:1,2008-09-29T18:46:00Z,29.6619,-84.3731,49.01,1111122 
COAPS,ioos:station:COAPS:N7:1,2008-09-29T18:47:00Z,29.6619,-84.3731,50.57,1111122 
COAPS,ioos:station:COAPS:N7:1,2008-09-29T18:48:00Z,29.6619,-84.3731,51.3,1111122 
COAPS,ioos:station:COAPS:N7:1,2008-09-29T18:49:00Z,29.6619,-84.3731,47.47,1111122 
COAPS,ioos:station:COAPS:N7:1,2008-09-29T18:50:00Z,29.6619,-84.3731,47.15,1111122 
COAPS,ioos:station:COAPS:N7:1,2008-09-29T18:51:00Z,29.6619,-84.3731,49.72,1111122 
COAPS,ioos:station:COAPS:N7:1,2008-09-29T18:52:00Z,29.6619,-84.3731,50.12,1111122 
COAPS,ioos:station:COAPS:N7:1,2008-09-29T18:53:00Z,29.6619,-84.3731,49.28,1111122 
COAPS,ioos:station:COAPS:N7:1,2008-09-29T18:54:00Z,29.6619,-84.3731,49.33,1111122 
COAPS,ioos:station:COAPS:N7:1,2008-09-29T18:55:00Z,29.6619,-84.3731,47.46,1111122 
COAPS,ioos:station:COAPS:N7:1,2008-09-29T18:56:00Z,29.6619,-84.3731,49.89,1111122 
COAPS,ioos:station:COAPS:N7:1,2008-09-29T18:57:00Z,29.6619,-84.3731,50.46,1111122 
COAPS,ioos:station:COAPS:N7:1,2008-09-29T18:58:00Z,29.6619,-84.3731,50.46,1111122 
COAPS,ioos:station:COAPS:N7:1,2008-09-29T18:59:00Z,29.6619,-84.3731,50.36,1111122 
COAPS,ioos:station:COAPS:N7:1,2008-09-29T19:00:00Z,29.6619,-84.3731,51.0,1111122 
COAPS,ioos:station:COAPS:N7:1,2008-09-29T19:01:00Z,29.6619,-84.3731,49.82,1111122 
COAPS,ioos:station:COAPS:N7:1,2008-09-29T19:02:00Z,29.6619,-84.3731,50.41,1111122 
COAPS,ioos:station:COAPS:N7:1,2008-09-29T19:03:00Z,29.6619,-84.3731,49.47,1111122 
COAPS,ioos:station:COAPS:N7:1,2008-09-29T19:04:00Z,29.6619,-84.3731,48.45,1111122 
COAPS,ioos:station:COAPS:N7:1,2008-09-29T19:05:00Z,29.6619,-84.3731,48.41,1111122 
COAPS,ioos:station:COAPS:N7:1,2008-09-29T19:06:00Z,29.6619,-84.3731,50.5,1111122 
COAPS,ioos:station:COAPS:N7:1,2008-09-29T19:07:00Z,29.6619,-84.3731,48.32,1111122 
COAPS,ioos:station:COAPS:N7:1,2008-09-29T19:08:00Z,29.6619,-84.3731,49.2,1111122 
COAPS,ioos:station:COAPS:N7:1,2008-09-29T19:09:00Z,29.6619,-84.3731,48.23,1111122 
COAPS,ioos:station:COAPS:N7:1,2008-09-29T19:10:00Z,29.6619,-84.3731,48.86,1111122 
COAPS,ioos:station:COAPS:N7:1,2008-09-29T19:11:00Z,29.6619,-84.3731,48.25,1111122 
COAPS,ioos:station:COAPS:N7:1,2008-09-29T19:12:00Z,29.6619,-84.3731,51.69,1111122 
COAPS,ioos:station:COAPS:N7:1,2008-09-29T19:13:00Z,29.6619,-84.3731,48.08,1111122 
COAPS,ioos:station:COAPS:N7:1,2008-09-29T19:14:00Z,29.6619,-84.3731,49.92,1111122 
COAPS,ioos:station:COAPS:N7:1,2008-09-29T19:15:00Z,29.6619,-84.3731,51.11,1111122 
COAPS,ioos:station:COAPS:N7:1,2008-09-29T19:16:00Z,29.6619,-84.3731,52.33,1111122 
COAPS,ioos:station:COAPS:N7:1,2008-09-29T19:17:00Z,29.6619,-84.3731,53.33,1111122 
COAPS,ioos:station:COAPS:N7:1,2008-09-29T19:18:00Z,29.6619,-84.3731,54.42,1111122 
COAPS,ioos:station:COAPS:N7:1,2008-09-29T19:19:00Z,29.6619,-84.3731,54.85,1111122 
COAPS,ioos:station:COAPS:N7:1,2008-09-29T19:20:00Z,29.6619,-84.3731,55.22,1111122 
COAPS,ioos:station:COAPS:N7:1,2008-09-29T19:21:00Z,29.6619,-84.3731,56.31,1111122 
COAPS,ioos:station:COAPS:N7:1,2008-09-29T19:22:00Z,29.6619,-84.3731,55.37,1111122 
COAPS,ioos:station:COAPS:N7:1,2008-09-29T19:23:00Z,29.6619,-84.3731,56.56,1111122 
COAPS,ioos:station:COAPS:N7:1,2008-09-29T19:24:00Z,29.6619,-84.3731,57.38,1111122 
COAPS,ioos:station:COAPS:N7:1,2008-09-29T19:25:00Z,29.6619,-84.3731,57.04,1111122 
COAPS,ioos:station:COAPS:N7:1,2008-09-29T19:26:00Z,29.6619,-84.3731,57.71,1111122 
COAPS,ioos:station:COAPS:N7:1,2008-09-29T19:27:00Z,29.6619,-84.3731,57.72,1111122 
COAPS,ioos:station:COAPS:N7:1,2008-09-29T19:28:00Z,29.6619,-84.3731,59.27,1111122 
COAPS,ioos:station:COAPS:N7:1,2008-09-29T19:29:00Z,29.6619,-84.3731,59.06,1111122 
COAPS,ioos:station:COAPS:N7:1,2008-09-29T19:30:00Z,29.6619,-84.3731,60.18,1111122 
COAPS,ioos:station:COAPS:N7:1,2008-09-29T19:31:00Z,29.6619,-84.3731,59.89,1111122 
COAPS,ioos:station:COAPS:N7:1,2008-09-29T19:32:00Z,29.6619,-84.3731,58.67,1111122 
COAPS,ioos:station:COAPS:N7:1,2008-09-29T19:33:00Z,29.6619,-84.3731,59.66,1111122 
COAPS,ioos:station:COAPS:N7:1,2008-09-29T19:34:00Z,29.6619,-84.3731,61.05,1111122 
COAPS,ioos:station:COAPS:N7:1,2008-09-29T19:35:00Z,29.6619,-84.3731,61.57,1111122 
COAPS,ioos:station:COAPS:N7:1,2008-09-29T19:36:00Z,29.6619,-84.3731,61.83,1111122 
COAPS,ioos:station:COAPS:N7:1,2008-09-29T19:37:00Z,29.6619,-84.3731,62.01,1111122 
COAPS,ioos:station:COAPS:N7:1,2008-09-29T19:38:00Z,29.6619,-84.3731,60.49,1111122 
COAPS,ioos:station:COAPS:N7:1,2008-09-29T19:39:00Z,29.6619,-84.3731,60.58,1111122 
COAPS,ioos:station:COAPS:N7:1,2008-09-29T19:40:00Z,29.6619,-84.3731,61.48,1111122 
COAPS,ioos:station:COAPS:N7:1,2008-09-29T19:41:00Z,29.6619,-84.3731,61.48,1111122 
COAPS,ioos:station:COAPS:N7:1,2008-09-29T19:42:00Z,29.6619,-84.3731,61.57,1111122 
COAPS,ioos:station:COAPS:N7:1,2008-09-29T19:43:00Z,29.6619,-84.3731,61.8,1111122 
COAPS,ioos:station:COAPS:N7:1,2008-09-29T19:44:00Z,29.6619,-84.3731,61.87,1111122 
COAPS,ioos:station:COAPS:N7:1,2008-09-29T19:45:00Z,29.6619,-84.3731,62.61,1111122 
COAPS,ioos:station:COAPS:N7:1,2008-09-29T19:46:00Z,29.6619,-84.3731,62.81,1111122 
COAPS,ioos:station:COAPS:N7:1,2008-09-29T19:47:00Z,29.6619,-84.3731,62.79,1111122 
COAPS,ioos:station:COAPS:N7:1,2008-09-29T19:48:00Z,29.6619,-84.3731,62.92,1111122 
COAPS,ioos:station:COAPS:N7:1,2008-09-29T19:49:00Z,29.6619,-84.3731,63.84,1111122 
COAPS,ioos:station:COAPS:N7:1,2008-09-29T19:50:00Z,29.6619,-84.3731,64.39,1111122 
COAPS,ioos:station:COAPS:N7:1,2008-09-29T19:51:00Z,29.6619,-84.3731,64.83,1111122 
COAPS,ioos:station:COAPS:N7:1,2008-09-29T19:52:00Z,29.6619,-84.3731,63.93,1111122 
COAPS,ioos:station:COAPS:N7:1,2008-09-29T19:53:00Z,29.6619,-84.3731,64.04,1111122 
COAPS,ioos:station:COAPS:N7:1,2008-09-29T19:54:00Z,29.6619,-84.3731,64.83,1111122 
COAPS,ioos:station:COAPS:N7:1,2008-09-29T19:55:00Z,29.6619,-84.3731,65.23,1111122 
COAPS,ioos:station:COAPS:N7:1,2008-09-29T19:56:00Z,29.6619,-84.3731,65.6,1111122 
COAPS,ioos:station:COAPS:N7:1,2008-09-29T19:57:00Z,29.6619,-84.3731,66.22,1111122 
COAPS,ioos:station:COAPS:N7:1,2008-09-29T19:58:00Z,29.6619,-84.3731,66.18,1111122 
COAPS,ioos:station:COAPS:N7:1,2008-09-29T19:59:00Z,29.6619,-84.3731,66.14,1111122 
COAPS,ioos:station:COAPS:N7:1,2008-09-29T20:00:00Z,29.6619,-84.3731,65.63,1111122 
COAPS,ioos:station:COAPS:N7:1,2008-09-29T20:01:00Z,29.6619,-84.3731,65.24,1111122 
COAPS,ioos:station:COAPS:N7:1,2008-09-29T20:02:00Z,29.6619,-84.3731,65.75,1111122 
COAPS,ioos:station:COAPS:N7:1,2008-09-29T20:03:00Z,29.6619,-84.3731,66.1,1111122 
COAPS,ioos:station:COAPS:N7:1,2008-09-29T20:04:00Z,29.6619,-84.3731,66.78,1111122 
COAPS,ioos:station:COAPS:N7:1,2008-09-29T20:05:00Z,29.6619,-84.3731,66.33,1111122 
COAPS,ioos:station:COAPS:N7:1,2008-09-29T20:06:00Z,29.6619,-84.3731,65.65,1111122 
COAPS,ioos:station:COAPS:N7:1,2008-09-29T20:07:00Z,29.6619,-84.3731,65.81,1111122 
COAPS,ioos:station:COAPS:N7:1,2008-09-29T20:08:00Z,29.6619,-84.3731,65.95,1111122 
COAPS,ioos:station:COAPS:N7:1,2008-09-29T20:09:00Z,29.6619,-84.3731,66.54,1111122 
COAPS,ioos:station:COAPS:N7:1,2008-09-29T20:10:00Z,29.6619,-84.3731,66.48,1111122 
COAPS,ioos:station:COAPS:N7:1,2008-09-29T20:11:00Z,29.6619,-84.3731,67.02,1111122 
COAPS,ioos:station:COAPS:N7:1,2008-09-29T20:12:00Z,29.6619,-84.3731,67.19,1111122 
COAPS,ioos:station:COAPS:N7:1,2008-09-29T20:13:00Z,29.6619,-84.3731,67.3,1111122 
COAPS,ioos:station:COAPS:N7:1,2008-09-29T20:14:00Z,29.6619,-84.3731,67.33,1111122 
COAPS,ioos:station:COAPS:N7:1,2008-09-29T20:15:00Z,29.6619,-84.3731,67.16,1111122 
COAPS,ioos:station:COAPS:N7:1,2008-09-29T20:16:00Z,29.6619,-84.3731,67.67,1111122 
COAPS,ioos:station:COAPS:N7:1,2008-09-29T20:17:00Z,29.6619,-84.3731,67.83,1111122 
COAPS,ioos:station:COAPS:N7:1,2008-09-29T20:18:00Z,29.6619,-84.3731,67.5,1111122 
COAPS,ioos:station:COAPS:N7:1,2008-09-29T20:19:00Z,29.6619,-84.3731,67.58,1111122 
COAPS,ioos:station:COAPS:N7:1,2008-09-29T20:20:00Z,29.6619,-84.3731,67.44,1111122 
COAPS,ioos:station:COAPS:N7:1,2008-09-29T20:21:00Z,29.6619,-84.3731,68.14,1111122 
COAPS,ioos:station:COAPS:N7:1,2008-09-29T20:22:00Z,29.6619,-84.3731,67.28,1111122 
COAPS,ioos:station:COAPS:N7:1,2008-09-29T20:23:00Z,29.6619,-84.3731,67.69,1111122 
COAPS,ioos:station:COAPS:N7:1,2008-09-29T20:24:00Z,29.6619,-84.3731,67.61,1111122 
COAPS,ioos:station:COAPS:N7:1,2008-09-29T20:25:00Z,29.6619,-84.3731,67.75,1111122 
COAPS,ioos:station:COAPS:N7:1,2008-09-29T20:26:00Z,29.6619,-84.3731,67.85,1111122 
COAPS,ioos:station:COAPS:N7:1,2008-09-29T20:27:00Z,29.6619,-84.3731,67.97,1111122 
COAPS,ioos:station:COAPS:N7:1,2008-09-29T20:28:00Z,29.6619,-84.3731,67.78,1111122 
COAPS,ioos:station:COAPS:N7:1,2008-09-29T20:29:00Z,29.6619,-84.3731,67.25,1111122 
COAPS,ioos:station:COAPS:N7:1,2008-09-29T20:30:00Z,29.6619,-84.3731,67.44,1111122 
COAPS,ioos:station:COAPS:N7:1,2008-09-29T20:31:00Z,29.6619,-84.3731,67.28,1111122 
COAPS,ioos:station:COAPS:N7:1,2008-09-29T20:32:00Z,29.6619,-84.3731,67.33,1111122 
COAPS,ioos:station:COAPS:N7:1,2008-09-29T20:33:00Z,29.6619,-84.3731,67.33,1111122 
COAPS,ioos:station:COAPS:N7:1,2008-09-29T20:34:00Z,29.6619,-84.3731,67.54,1111122 
COAPS,ioos:station:COAPS:N7:1,2008-09-29T20:35:00Z,29.6619,-84.3731,67.8,1111122 
COAPS,ioos:station:COAPS:N7:1,2008-09-29T20:36:00Z,29.6619,-84.3731,68.04,1111122 
COAPS,ioos:station:COAPS:N7:1,2008-09-29T20:37:00Z,29.6619,-84.3731,67.96,1111122 
COAPS,ioos:station:COAPS:N7:1,2008-09-29T20:38:00Z,29.6619,-84.3731,67.32,1111122 
COAPS,ioos:station:COAPS:N7:1,2008-09-29T20:39:00Z,29.6619,-84.3731,67.53,1111122 
COAPS,ioos:station:COAPS:N7:1,2008-09-29T20:40:00Z,29.6619,-84.3731,67.46,1111122 
COAPS,ioos:station:COAPS:N7:1,2008-09-29T20:41:00Z,29.6619,-84.3731,67.6,1111122 
COAPS,ioos:station:COAPS:N7:1,2008-09-29T20:42:00Z,29.6619,-84.3731,67.81,1111122 
COAPS,ioos:station:COAPS:N7:1,2008-09-29T20:43:00Z,29.6619,-84.3731,67.84,1111122 
COAPS,ioos:station:COAPS:N7:1,2008-09-29T20:44:00Z,29.6619,-84.3731,67.65,1111122 
COAPS,ioos:station:COAPS:N7:1,2008-09-29T20:45:00Z,29.6619,-84.3731,67.1,1111122 
COAPS,ioos:station:COAPS:N7:1,2008-09-29T20:46:00Z,29.6619,-84.3731,66.96,1111122 
COAPS,ioos:station:COAPS:N7:1,2008-09-29T20:47:00Z,29.6619,-84.3731,67.33,1111122 
COAPS,ioos:station:COAPS:N7:1,2008-09-29T20:48:00Z,29.6619,-84.3731,67.12,1111122 
COAPS,ioos:station:COAPS:N7:1,2008-09-29T20:49:00Z,29.6619,-84.3731,66.98,1111122 
COAPS,ioos:station:COAPS:N7:1,2008-09-29T20:50:00Z,29.6619,-84.3731,67.24,1111122 
COAPS,ioos:station:COAPS:N7:1,2008-09-29T20:51:00Z,29.6619,-84.3731,67.08,1111122 
COAPS,ioos:station:COAPS:N7:1,2008-09-29T20:52:00Z,29.6619,-84.3731,67.09,1111122 
COAPS,ioos:station:COAPS:N7:1,2008-09-29T20:53:00Z,29.6619,-84.3731,67.27,1111122 
COAPS,ioos:station:COAPS:N7:1,2008-09-29T20:54:00Z,29.6619,-84.3731,67.11,1111122 
COAPS,ioos:station:COAPS:N7:1,2008-09-29T20:55:00Z,29.6619,-84.3731,67.19,1111122 
COAPS,ioos:station:COAPS:N7:1,2008-09-29T20:56:00Z,29.6619,-84.3731,67.07,1111122 
COAPS,ioos:station:COAPS:N7:1,2008-09-29T20:57:00Z,29.6619,-84.3731,67.38,1111122 
COAPS,ioos:station:COAPS:N7:1,2008-09-29T20:58:00Z,29.6619,-84.3731,67.35,1111122 
COAPS,ioos:station:COAPS:N7:1,2008-09-29T20:59:00Z,29.6619,-84.3731,67.31,1111122 
COAPS,ioos:station:COAPS:N7:1,2008-09-29T21:00:00Z,29.6619,-84.3731,67.12,1111122 
COAPS,ioos:station:COAPS:N7:1,2008-09-29T21:01:00Z,29.6619,-84.3731,67.33,1111122 
COAPS,ioos:station:COAPS:N7:1,2008-09-29T21:02:00Z,29.6619,-84.3731,67.44,1111122 
COAPS,ioos:station:COAPS:N7:1,2008-09-29T21:03:00Z,29.6619,-84.3731,68.0,1111122 
COAPS,ioos:station:COAPS:N7:1,2008-09-29T21:04:00Z,29.6619,-84.3731,67.93,1111122 
COAPS,ioos:station:COAPS:N7:1,2008-09-29T21:05:00Z,29.6619,-84.3731,67.71,1111122 
COAPS,ioos:station:COAPS:N7:1,2008-09-29T21:06:00Z,29.6619,-84.3731,67.93,1111122 
COAPS,ioos:station:COAPS:N7:1,2008-09-29T21:07:00Z,29.6619,-84.3731,68.13,1111122 
COAPS,ioos:station:COAPS:N7:1,2008-09-29T21:08:00Z,29.6619,-84.3731,68.02,1111122 
COAPS,ioos:station:COAPS:N7:1,2008-09-29T21:09:00Z,29.6619,-84.3731,67.78,1111122 
COAPS,ioos:station:COAPS:N7:1,2008-09-29T21:10:00Z,29.6619,-84.3731,68.52,1111122 
COAPS,ioos:station:COAPS:N7:1,2008-09-29T21:11:00Z,29.6619,-84.3731,68.78,1111122 
COAPS,ioos:station:COAPS:N7:1,2008-09-29T21:12:00Z,29.6619,-84.3731,68.87,1111122 
COAPS,ioos:station:COAPS:N7:1,2008-09-29T21:13:00Z,29.6619,-84.3731,68.88,1111122 
COAPS,ioos:station:COAPS:N7:1,2008-09-29T21:14:00Z,29.6619,-84.3731,68.65,1111122 
COAPS,ioos:station:COAPS:N7:1,2008-09-29T21:15:00Z,29.6619,-84.3731,68.77,1111122 
COAPS,ioos:station:COAPS:N7:1,2008-09-29T21:16:00Z,29.6619,-84.3731,68.68,1111122 
COAPS,ioos:station:COAPS:N7:1,2008-09-29T21:17:00Z,29.6619,-84.3731,68.72,1111122 
COAPS,ioos:station:COAPS:N7:1,2008-09-29T21:18:00Z,29.6619,-84.3731,68.58,1111122 
COAPS,ioos:station:COAPS:N7:1,2008-09-29T21:19:00Z,29.6619,-84.3731,68.77,1111122 
COAPS,ioos:station:COAPS:N7:1,2008-09-29T21:20:00Z,29.6619,-84.3731,68.5,1111122 
COAPS,ioos:station:COAPS:N7:1,2008-09-29T21:21:00Z,29.6619,-84.3731,68.53,1111122 
COAPS,ioos:station:COAPS:N7:1,2008-09-29T21:22:00Z,29.6619,-84.3731,68.74,1111122 
COAPS,ioos:station:COAPS:N7:1,2008-09-29T21:23:00Z,29.6619,-84.3731,68.81,1111122 
COAPS,ioos:station:COAPS:N7:1,2008-09-29T21:24:00Z,29.6619,-84.3731,68.75,1111122 
COAPS,ioos:station:COAPS:N7:1,2008-09-29T21:25:00Z,29.6619,-84.3731,68.68,1111122 
COAPS,ioos:station:COAPS:N7:1,2008-09-29T21:26:00Z,29.6619,-84.3731,68.7,1111122 
COAPS,ioos:station:COAPS:N7:1,2008-09-29T21:27:00Z,29.6619,-84.3731,68.64,1111122 
COAPS,ioos:station:COAPS:N7:1,2008-09-29T21:28:00Z,29.6619,-84.3731,68.62,1111122 
COAPS,ioos:station:COAPS:N7:1,2008-09-29T21:29:00Z,29.6619,-84.3731,68.53,1111122 
COAPS,ioos:station:COAPS:N7:1,2008-09-29T21:30:00Z,29.6619,-84.3731,68.34,1111122 
COAPS,ioos:station:COAPS:N7:1,2008-09-29T21:31:00Z,29.6619,-84.3731,68.26,1111122 